Gainesville, FL

12:07 PM EDT on April 25, 2017 (GMT -0400)
Gainesville Regional

Weather History for KGNV - April, 2013

Change the Weather History Date:

Monday, April 29, 2013

  Actual Average Record
Temperature  
Mean Temperature 73 °F 70 °F  
Max Temperature 83 °F 83 °F 95 °F (1914)
Min Temperature 62 °F 58 °F 39 °F (1928)
Degree Days  
Heating Degree Days 0 1  
Month to date heating degree days 24 44  
Since 1 July heating degree days 1036 1215  
Cooling Degree Days 8 6  
Month to date cooling degree days 157 115  
Year to date cooling degree days 275 201  
Growing Degree Days 23 (Base 50)    
Moisture  
Dew Point 62 °F    
Average Humidity 68    
Maximum Humidity 93    
Minimum Humidity 43    
Precipitation  
Precipitation 0.37 in 0.08 in 1.31 in (1939)
Month to date precipitation 3.48 2.60  
Year to date precipitation 6.43 13.44  
Snow  
Snow 0.00 in 0.00 in 0.00 in ()
Month to date snowfall 0.0 0.0  
Since 1 July snowfall 0.0 0.0  
Snow Depth 0.00 in    
Sea Level Pressure  
Sea Level Pressure 29.99 in    
Wind  
Wind Speed 4 mph (SSW)    
Max Wind Speed 22 mph    
Max Gust Speed 36 mph    
Visibility 9 miles    
Events Rain , Thunderstorm    
T = Trace of Precipitation, MM = Missing Value Source: NWS Daily Summary

Daily Weather History Graph

Daily Weather History Graph

Search for Another Location

Airport or City:

Trip Planner

Search our weather history database for the weather conditions in past years. The results will help you decide how hot, cold, wet, or windy it might be!

Date:

Astronomy

Apr. 29, 2013 Rise Set
Actual Time 6:48 AM EDT 8:04 PM EDT
Civil Twilight 6:23 AM EDT 8:30 PM EDT
Nautical Twilight 5:53 AM EDT 9:00 PM EDT
Astronomical Twilight 5:22 AM EDT 9:31 PM EDT
Moon No Moon Rise 10:14 AM EDT (4/29)
Length of Visible Light 14h 06m
Length of Day
13h 16m
Waning Gibbous, 80% of the Moon is Illuminated
Apr 29
Waning Gibbous
May 2
Last Quarter
May 9
New
May 18
First Quarter
May 25
Full

Hourly Weather History & Observations

Time (EDT) Temp. Heat Index Dew Point Humidity Pressure Visibility Wind Dir Wind Speed Gust Speed Precip Events Conditions
12:53 AM 68.0 °F - 60.1 °F 76% 30.03 in 10.0 mi SSE 4.6 mph - N/A   Clear
1:53 AM 66.0 °F - 60.1 °F 81% 30.03 in 10.0 mi Calm Calm - N/A   Mostly Cloudy
2:53 AM 64.9 °F - 61.0 °F 87% 30.01 in 10.0 mi SE 3.5 mph - N/A   Mostly Cloudy
3:53 AM 68.0 °F - 62.1 °F 81% 30.01 in 10.0 mi Calm Calm - N/A   Mostly Cloudy
4:53 AM 68.0 °F - 62.1 °F 81% 30.01 in 10.0 mi Calm Calm - N/A   Overcast
5:53 AM 66.9 °F - 61.0 °F 81% 30.00 in 10.0 mi SSE 3.5 mph - N/A   Mostly Cloudy
6:53 AM 66.9 °F - 61.0 °F 81% 30.01 in 10.0 mi Calm Calm - N/A   Mostly Cloudy
7:53 AM 68.0 °F - 62.1 °F 81% 30.03 in 10.0 mi Calm Calm - N/A   Partly Cloudy
8:53 AM 69.1 °F - 63.0 °F 81% 30.03 in 10.0 mi SE 4.6 mph - N/A   Scattered Clouds
9:53 AM 73.9 °F - 64.0 °F 71% 30.03 in 10.0 mi South 6.9 mph - N/A   Mostly Cloudy
10:53 AM 77.0 °F - 63.0 °F 62% 30.04 in 10.0 mi SSW 5.8 mph - N/A   Partly Cloudy
11:53 AM 78.1 °F - 62.1 °F 58% 30.03 in 10.0 mi SW 6.9 mph - N/A   Clear
12:53 PM 79.0 °F - 60.1 °F 52% 30.03 in 10.0 mi SW 8.1 mph - N/A   Mostly Cloudy
1:53 PM 81.0 °F 81.0 °F 57.0 °F 44% 30.00 in 10.0 mi SSW 8.1 mph - 0.00 in   Partly Cloudy
2:53 PM 82.0 °F 81.7 °F 57.0 °F 42% 29.96 in 10.0 mi South 6.9 mph 16.1 mph N/A   Mostly Cloudy
3:53 PM 81.0 °F 81.6 °F 60.1 °F 49% 29.93 in 10.0 mi SW 8.1 mph - N/A   Mostly Cloudy
4:53 PM 82.0 °F 82.7 °F 61.0 °F 49% 29.93 in 10.0 mi North 6.9 mph - N/A   Overcast
5:32 PM 75.2 °F - 64.4 °F 69% 29.95 in 2.5 mi WSW 12.7 mph 23.0 mph 0.01 in Rain , Thunderstorm Thunderstorms and Rain
5:53 PM 70.0 °F - 64.0 °F 81% 29.95 in 2.5 mi WNW 10.4 mph 24.2 mph 0.17 in Rain , Thunderstorm Thunderstorms and Rain
6:00 PM 71.6 °F - 62.6 °F 73% 29.94 in 0.8 mi West 8.1 mph 35.7 mph 0.11 in Rain , Thunderstorm Thunderstorms and Rain
6:09 PM 69.8 °F - 62.6 °F 78% 29.93 in 5.0 mi Calm Calm - 0.20 in Rain , Thunderstorm Thunderstorms and Rain
6:21 PM 71.6 °F - 64.4 °F 78% 29.94 in 10.0 mi NNW 6.9 mph - 0.20 in Rain Light Rain
6:53 PM 73.0 °F - 66.9 °F 81% 29.95 in 10.0 mi Calm Calm - 0.20 in   Mostly Cloudy
7:53 PM 71.1 °F - 66.0 °F 84% 29.97 in 10.0 mi North 5.8 mph - N/A   Overcast
8:53 PM 68.0 °F - 64.0 °F 87% 29.99 in 10.0 mi NE 6.9 mph - N/A   Overcast
9:53 PM 66.9 °F - 63.0 °F 87% 29.97 in 10.0 mi North 3.5 mph - N/A   Partly Cloudy
10:53 PM 64.0 °F - 62.1 °F 93% 29.98 in 10.0 mi Calm Calm - N/A   Clear
11:53 PM 63.0 °F - 61.0 °F 93% 29.99 in 10.0 mi ESE 4.6 mph - N/A   Clear